{"data":{"norad_id":42719,"intl_designator":"2017-027A","name":"COSMOS 2518 (EKS 2)","alt_names":[],"object_type":"PAYLOAD","status":"ACTIVE","operator":null,"country":"CIS","launch_date":"2017-05-25","launch_site_code":"PLMSC","launch_vehicle":null,"mission":null,"orbit_class":"UNKNOWN","rcs_meters":null,"size_class":null,"mass_kg":null,"dimensions":null,"purposes":[],"wikipedia_slug":null,"has_3d_model":false,"image_url":null,"decayed_at":null,"tle_current":{"epoch":"2026-09-04T18:50:37.639968Z","epoch_age_seconds":1406212,"freshness":"OLD","line1":"1 42719U 17027A   26247.78515787  .00000008  00000+0  00000+0 0  9995","line2":"2 42719  63.0194 238.9677 6930005 273.8909  16.0991  2.00742015 68002","mean_motion":2.00742015,"eccentricity":0.6930005,"inclination_deg":63.0194,"raan_deg":238.9677,"arg_perigee_deg":273.8909,"mean_anomaly_deg":16.0991,"bstar":0,"rev_number":6800,"period_min":717.3386199197,"perigee_km":1771.0444893453,"apogee_km":38561.898198925,"semimajor_km":26544.608344135,"source":"CELESTRAK","updated_at":"2026-09-20T09:00:14.208126Z"}}}